Ottumwa, IA

4:04 PM CDT on April 25, 2018 (GMT -0500)
Ottumwa Industrial

Weather History for KOTM - November, 2012

Change the Weather History Date:

Sunday, November 25, 2012

  Actual Average Record
Temperature  
Mean Temperature 35 °F 34 °F  
Max Temperature 41 °F 43 °F 65 °F (1960)
Min Temperature 29 °F 25 °F 3 °F (1977)
Degree Days  
Heating Degree Days 30 31  
Month to date heating degree days 544 611  
Since 1 July heating degree days 1127 1135  
Cooling Degree Days 0 0  
Month to date cooling degree days 2 0  
Year to date cooling degree days 1237 938  
Moisture  
Dew Point 25 °F    
Average Humidity 66    
Maximum Humidity 78    
Minimum Humidity 54    
Precipitation  
Precipitation 0.00 in 0.07 in 0.76 in (1992)
Month to date precipitation 1.58 2.03  
Year to date precipitation 25.33 35.35  
Sea Level Pressure  
Sea Level Pressure 29.99 in    
Wind  
Wind Speed 8 mph (NW)    
Max Wind Speed 17 mph    
Max Gust Speed 20 mph    
Visibility 10 miles    
Events      
T = Trace of Precipitation, MM = Missing Value Source: NWS Daily Summary

Daily Weather History Graph

Daily Weather History Graph

Search for Another Location

Airport or City:

Astronomy

Nov. 25, 2012 Rise Set
Actual Time 7:09 AM CST 4:43 PM CST
Civil Twilight 6:39 AM CST 5:14 PM CST
Nautical Twilight 6:05 AM CST 5:48 PM CST
Astronomical Twilight 5:32 AM CST 6:21 PM CST
Moon 3:02 PM CST 4:23 AM CST
Length of Visible Light 10h 34m
Length of Day
9h 34m
Waxing Gibbous, 93% of the Moon is Illuminated
Nov 25
Waxing Gibbous
Nov 28
Full
Dec 6
Last Quarter
Dec 13
New
Dec 19
First Quarter

Hourly Weather History & Observations

Time (CST) Temp. Windchill Dew Point Humidity Pressure Visibility Wind Dir Wind Speed Gust Speed Precip Events Conditions
12:53 AM 32.0 °F 26.4 °F 21.9 °F 66% 29.88 in 10.0 mi SSW 5.8 mph - N/A   Partly Cloudy
1:53 AM 32.0 °F 26.4 °F 23.0 °F 69% 29.87 in 10.0 mi SSW 5.8 mph - N/A   Mostly Cloudy
2:53 AM 32.0 °F 26.4 °F 23.0 °F 69% 29.88 in 10.0 mi SSW 5.8 mph - N/A   Clear
3:53 AM 34.0 °F 29.8 °F 24.1 °F 67% 29.86 in 10.0 mi SW 4.6 mph - N/A   Clear
4:53 AM 34.0 °F 29.8 °F 25.0 °F 70% 29.88 in 10.0 mi West 4.6 mph - N/A   Partly Cloudy
5:53 AM 37.0 °F 31.0 °F 25.0 °F 62% 29.90 in 10.0 mi WNW 8.1 mph - N/A   Clear
6:53 AM 36.0 °F 28.5 °F 24.1 °F 62% 29.92 in 10.0 mi NW 10.4 mph - N/A   Clear
7:53 AM 35.1 °F 28.6 °F 23.0 °F 61% 29.94 in 10.0 mi NW 8.1 mph - N/A   Clear
8:53 AM 36.0 °F 29.6 °F 23.0 °F 59% 29.96 in 10.0 mi NW 8.1 mph - N/A   Clear
9:53 AM 39.9 °F 31.4 °F 26.1 °F 58% 29.99 in 10.0 mi NNW 16.1 mph - N/A   Clear
10:53 AM 39.0 °F 32.3 °F 26.1 °F 60% 30.00 in 10.0 mi NNW 10.4 mph - N/A   Scattered Clouds
11:53 AM 39.9 °F 32.5 °F 26.1 °F 58% 29.98 in 10.0 mi NNW 12.7 mph - N/A   Overcast
12:53 PM 39.0 °F 33.4 °F 25.0 °F 57% 29.98 in 10.0 mi NW 8.1 mph - N/A   Partly Cloudy
1:53 PM 39.9 °F 32.9 °F 26.1 °F 58% 29.98 in 10.0 mi NW 11.5 mph - 0.00 in   Clear
2:53 PM 39.9 °F 32.5 °F 25.0 °F 55% 29.98 in 10.0 mi NNW 12.7 mph - N/A   Overcast
3:53 PM 37.9 °F 30.5 °F 25.0 °F 60% 30.01 in 10.0 mi NNW 11.5 mph - N/A   Mostly Cloudy
4:53 PM 36.0 °F 29.0 °F 25.0 °F 64% 30.02 in 10.0 mi North 9.2 mph - N/A   Overcast
5:53 PM 36.0 °F 28.5 °F 25.0 °F 64% 30.04 in 10.0 mi NNW 10.4 mph - N/A   Mostly Cloudy
6:53 PM 35.1 °F 31.0 °F 25.0 °F 67% 30.06 in 10.0 mi NNW 4.6 mph - N/A   Overcast
7:53 PM 34.0 °F 31.0 °F 26.1 °F 73% 30.08 in 10.0 mi NW 3.5 mph - N/A   Overcast
8:53 PM 33.1 °F - 25.0 °F 72% 30.09 in 10.0 mi Calm Calm - N/A   Mostly Cloudy
9:53 PM 30.0 °F 25.2 °F 24.1 °F 79% 30.11 in 10.0 mi WNW 4.6 mph - N/A   Scattered Clouds
10:53 PM 30.0 °F 23.2 °F 24.1 °F 79% 30.12 in 10.0 mi NNW 6.9 mph - N/A   Partly Cloudy
11:53 PM 33.1 °F 24.4 °F 25.0 °F 72% 30.15 in 10.0 mi North 11.5 mph - N/A   Clear